TimeEST,TemperatureF,Dew PointF,Humidity,Sea Level PressureIn,VisibilityMPH,Wind Direction,Wind SpeedMPH,Gust SpeedMPH,PrecipitationIn,Events,Conditions,WindDirDegrees,DateUTC
12:53 AM,59.0,55.0,87,30.03,10.0,North,4.6,-,N/A,,Clear,10,2012-11-21 05:53:00
1:53 AM,59.0,55.0,87,30.02,10.0,North,5.8,-,N/A,,Clear,350,2012-11-21 06:53:00
2:53 AM,59.0,54.0,83,30.01,10.0,North,6.9,-,N/A,,Clear,360,2012-11-21 07:53:00
3:53 AM,59.0,53.1,81,30.01,10.0,North,6.9,-,N/A,,Clear,10,2012-11-21 08:53:00
4:53 AM,59.0,53.1,81,30.02,10.0,North,8.1,-,N/A,,Clear,360,2012-11-21 09:53:00
5:53 AM,57.9,52.0,81,30.03,10.0,North,8.1,-,N/A,,Clear,360,2012-11-21 10:53:00
6:53 AM,57.9,52.0,81,30.05,10.0,North,6.9,-,N/A,,Clear,360,2012-11-21 11:53:00
7:53 AM,61.0,52.0,72,30.06,10.0,North,10.4,-,N/A,,Clear,360,2012-11-21 12:53:00
8:53 AM,64.9,52.0,63,30.07,10.0,North,10.4,-,N/A,,Clear,10,2012-11-21 13:53:00
9:53 AM,69.1,52.0,54,30.08,10.0,North,12.7,-,N/A,,Clear,10,2012-11-21 14:53:00
10:53 AM,72.0,51.1,48,30.06,10.0,NNE,13.8,19.6,N/A,,Clear,20,2012-11-21 15:53:00
11:53 AM,73.0,50.0,44,30.04,10.0,NNE,16.1,20.7,N/A,,Clear,30,2012-11-21 16:53:00
12:53 PM,73.9,50.0,43,30.01,10.0,North,17.3,23.0,N/A,,Clear,360,2012-11-21 17:53:00
1:53 PM,75.0,50.0,41,29.99,10.0,North,12.7,20.7,N/A,,Clear,360,2012-11-21 18:53:00
2:53 PM,75.0,48.0,38,29.98,10.0,North,12.7,-,N/A,,Clear,10,2012-11-21 19:53:00
3:53 PM,73.9,48.9,41,29.98,10.0,North,13.8,-,N/A,,Clear,10,2012-11-21 20:53:00
4:53 PM,72.0,45.0,38,29.99,10.0,NNE,12.7,-,N/A,,Clear,20,2012-11-21 21:53:00
5:53 PM,69.1,45.0,42,30.00,10.0,NNE,8.1,-,N/A,,Clear,20,2012-11-21 22:53:00
6:53 PM,64.0,46.9,54,30.03,10.0,NNE,3.5,-,N/A,,Clear,20,2012-11-21 23:53:00
7:53 PM,63.0,46.9,56,30.04,10.0,NE,4.6,-,N/A,,Clear,40,2012-11-22 00:53:00
8:53 PM,61.0,46.9,60,30.06,10.0,NNW,5.8,-,N/A,,Clear,330,2012-11-22 01:53:00
9:53 PM,62.1,51.1,67,30.08,10.0,NNW,8.1,-,N/A,,Clear,340,2012-11-22 02:53:00
10:53 PM,59.0,52.0,78,30.09,10.0,NNE,5.8,-,N/A,,Clear,30,2012-11-22 03:53:00
11:53 PM,57.0,48.9,74,30.10,10.0,NE,3.5,-,N/A,,Clear,50,2012-11-22 04:53:00